Location: Ammerl�gen
(47.2167°N, 9.6000°E)
Time: 09:21:38
(UTC+00:00)

Iridium 4 Rocket - Pass Details

Date: 07 August 2021
Orbit: 584 x 904 km, 86.9° (Epoch: 18 September)

Event Time Altitude Azimuth Distance (km) Brightness Sun altitude
Rises 00:00:41 0° 1° (N) 3,492 8.2 -25.9°
Reaches altitude 10° 00:03:13 10° 7° (N) 2,572 7.2 -25.9°
Maximum altitude 00:08:54 49° 82° (E) 1,152 4.4 -25.7°
Enters shadow 00:10:31 39° 125° (SE) 1,324 4.5 -25.6°
